{"data":{"norad_id":67833,"epoch":"2026-05-25T04:15:03.254400Z","epoch_age_seconds":62957,"freshness":"FRESH","line1":"1 67833U 26033N   26145.17712100  .00017606  00000+0  64788-3 0  9993","line2":"2 67833  43.0010 194.9221 0001404 259.2371 100.8323 15.27575318 16371","mean_motion":15.27575318,"eccentricity":0.0001404,"inclination_deg":43.001,"raan_deg":194.9221,"arg_perigee_deg":259.2371,"mean_anomaly_deg":100.8323,"bstar":0.00064788,"rev_number":1637,"period_min":94.267037640104,"perigee_km":482.09980317156,"apogee_km":484.02642816404,"semimajor_km":6861.2001156678,"source":"CELESTRAK","updated_at":"2026-05-25T13:38:21.699920Z"}}